Tracking 29892 objects as of 21-Nov-2024
HD Live streaming from Space Station
objects crossing your sky now

DELTA 1 DEB

Track DELTA 1 DEB now!
10-day predictions


NORAD ID: 37659
Int'l Code: 1978-026JW
Perigee: 877.5 km
Apogee: 1,108.7 km
Inclination: 98.8 °
Period: 104.8 minutes
Semi major axis: 7364 km
RCS: 0.0061 m2 (small)
Launch date: March 5, 1978
Source: United States (US)
Launch site: AIR FORCE WESTERN TEST RANGE (AFWTR)

Note: This is SATELLITE DEBRIS
Your satellite tracking list
Your tracking list is empty




NASA's NSSDC Master Catalog

Two Line Element Set (TLE):
1 37659U 78026JW  24323.87480080  .00000234  00000-0  26673-3 0  9998
2 37659  98.7837   2.8636 0157007  50.3516 311.1368 13.73796855 11211
Source of the keplerian elements: AFSPC